sat.trackr.live / text

‹ back to catalog

STARLINK-31562

NORAD 59340 · 2024-057W

PAYLOAD ACTIVE UNKNOWN

§ Identity

Operator
Country
US
Launch date
2024-03-25
Launch site
AFETR
Launch vehicle
Mass (kg)
RCS (m²)

Purposes: comms

External: N2YO · Heavens-Above · Gunter

§ Orbital elements

Epoch: 2026-09-20T01:38:10.110912Z

Period
94.27 min
Inclination
43.0005°
Eccentricity
0.0001016
Mean motion
15.27575226 rev/d
Perigee alt
482.4 km
Apogee alt
483.8 km
Semi-major
6,861.2 km
B*
2.2765e-5
RAAN
184.3098°
Arg perigee
274.9484°
Mean anomaly
85.1251°
Rev number
13,939

§ Raw data

STARLINK-315621 59340U 24057W   26263.06817258  .00000364  00000+0  22765-4 0  99932 59340  43.0005 184.3098 0001016 274.9484  85.1251 15.27575226139393

JSON: /api/v1/satellites/59340 · /tle

For live sub-satellite position, see the globe view (requires WebGL).

§ Visibility from observer

Set your observer location to see the next 7 days of passes ≥ 10°. The values pass through the URL so the page stays shareable.

No JS? Fill the form by hand. The geolocation button needs JavaScript.